Weather History for KLJF - April, 2015

Change the Weather History Date:

Thursday, April 2, 2015

  Actual Average Record
Temperature  
Mean Temperature 48 °F -  
Max Temperature 62 °F 49 °F 76 °F (1963)
Min Temperature 33 °F 29 °F 2 °F (1954)
Degree Days  
Heating Degree Days 18    
Moisture  
Dew Point 30 °F    
Average Humidity 51    
Maximum Humidity 81    
Minimum Humidity 18    
Precipitation  
Precipitation 0.00 in - - ()
Sea Level Pressure  
Sea Level Pressure 29.78 in    
Wind  
Wind Speed 4 mph (WNW)    
Max Wind Speed 23 mph    
Max Gust Speed 37 mph    
Visibility 10 miles    
Events      
Averages and records for this station are not official NWS values.
T = Trace of Precipitation, MM = Missing Value Source: NWS Daily Summary

Daily Weather History Graph

Daily Weather History Graph

Search for Another Location

Airport or City:

Trip Planner

Search our weather history database for the weather conditions in past years. The results will help you decide how hot, cold, wet, or windy it might be!

Date:

Astronomy

Apr. 02, 2015 Rise Set
Actual Time 6:57 AM CDT 7:46 PM CDT
Civil Twilight 6:27 AM CDT 8:16 PM CDT
Nautical Twilight 5:51 AM CDT 8:52 PM CDT
Astronomical Twilight 5:15 AM CDT 9:29 PM CDT
Moon 6:17 PM CDT (4/2) 6:05 AM CDT (4/2)
Length of Visible Light 13h 49m
Length of Day
12h 49m
Waxing Gibbous, 97% of the Moon is Illuminated
Apr 2
Waxing Gibbous
Apr 4
Full
Apr 11
Last Quarter
Apr 18
New
Apr 25
First Quarter

Hourly Weather History & Observations

Time (CDT) Temp. Windchill Dew Point Humidity Pressure Visibility Wind Dir Wind Speed Gust Speed Precip Events Conditions
12:13 AM 51.8 °F - 42.8 °F 71% 29.65 in 10.0 mi Calm Calm - N/A   Clear
12:33 AM 53.6 °F - 41.0 °F 62% 29.68 in 10.0 mi Calm Calm - N/A   Clear
12:53 AM 53.6 °F - 41.0 °F 62% 29.69 in 10.0 mi Calm Calm - N/A   Clear
1:13 AM 53.6 °F - 39.2 °F 58% 29.70 in 10.0 mi Calm Calm - N/A   Clear
1:32 AM 51.8 °F - 39.2 °F 62% 29.70 in 10.0 mi Calm Calm - N/A   Clear
1:53 AM 50.0 °F - 39.2 °F 66% 29.69 in 10.0 mi Calm Calm - N/A   Clear
2:13 AM 50.0 °F - 37.4 °F 62% 29.70 in 10.0 mi Calm Calm - N/A   Clear
2:32 AM 48.2 °F - 37.4 °F 66% 29.71 in 10.0 mi Calm Calm - N/A   Clear
2:53 AM 46.4 °F - 39.2 °F 76% 29.73 in 10.0 mi Calm Calm - N/A   Clear
3:13 AM 46.4 °F - 39.2 °F 76% 29.72 in 10.0 mi Calm Calm - N/A   Clear
3:33 AM 44.6 °F - 37.4 °F 76% 29.73 in 10.0 mi Calm Calm - N/A   Clear
3:53 AM 46.4 °F - 37.4 °F 71% 29.73 in 10.0 mi Calm Calm - N/A   Clear
4:13 AM 46.4 °F - 37.4 °F 71% 29.73 in 10.0 mi Calm Calm - N/A   Clear
4:32 AM 46.4 °F - 37.4 °F 71% 29.73 in 10.0 mi Calm Calm - N/A   Clear
4:53 AM 44.6 °F - 37.4 °F 76% 29.73 in 10.0 mi Calm Calm - N/A   Clear
5:13 AM 44.6 °F - 37.4 °F 76% 29.72 in 10.0 mi Calm Calm - N/A   Clear
5:32 AM 42.8 °F - 37.4 °F 81% 29.72 in 10.0 mi Calm Calm - N/A   Clear
5:53 AM 42.8 °F - 37.4 °F 81% 29.71 in 10.0 mi Calm Calm - N/A   Clear
6:13 AM 42.8 °F - 37.4 °F 81% 29.72 in 10.0 mi Calm Calm - N/A   Clear
6:32 AM 42.8 °F - 37.4 °F 81% 29.72 in 10.0 mi Calm Calm - N/A   Clear
6:53 AM 42.8 °F - 35.6 °F 76% 29.73 in 10.0 mi Calm Calm - N/A   Clear
7:13 AM 42.8 °F - 35.6 °F 76% 29.74 in 10.0 mi Calm Calm - N/A   Clear
7:32 AM 42.8 °F - 33.8 °F 70% 29.75 in 10.0 mi Calm Calm - N/A   Clear
7:53 AM 41.0 °F - 33.8 °F 76% 29.75 in 10.0 mi Calm Calm - N/A   Clear
8:13 AM 42.8 °F - 33.8 °F 70% 29.75 in 10.0 mi Calm Calm - N/A   Clear
8:33 AM 44.6 °F - 33.8 °F 66% 29.74 in 10.0 mi Calm Calm - N/A   Clear
8:53 AM 46.4 °F - 33.8 °F 62% 29.74 in 10.0 mi Calm Calm - N/A   Clear
9:13 AM 48.2 °F - 33.8 °F 58% 29.74 in 10.0 mi Calm Calm - N/A   Clear
9:33 AM 48.2 °F - 33.8 °F 58% 29.74 in 10.0 mi Calm Calm - N/A   Clear
9:53 AM 48.2 °F - 33.8 °F 58% 29.75 in 10.0 mi Calm Calm - N/A   Clear
10:13 AM 51.8 °F - 33.8 °F 50% 29.75 in 10.0 mi Calm Calm - N/A   Clear
10:33 AM 53.6 °F - 33.8 °F 47% 29.76 in 10.0 mi Calm Calm - N/A   Clear
10:52 AM 53.6 °F - 30.2 °F 41% 29.76 in 10.0 mi Calm Calm - N/A   Clear
11:13 AM 57.2 °F - 30.2 °F 36% - 10.0 mi Calm Calm - N/A   Clear
11:33 AM 57.2 °F - 26.6 °F 31% 29.76 in 10.0 mi West 5.8 mph - N/A   Clear
11:52 AM 60.8 °F - 24.8 °F 25% 29.75 in 10.0 mi West 3.5 mph 17.3 mph N/A   Clear
12:13 PM 60.8 °F - 19.4 °F 20% 29.75 in 10.0 mi West 11.5 mph 23.0 mph N/A   Clear
12:32 PM 62.6 °F - 23.0 °F 22% 29.75 in 10.0 mi West 9.2 mph 25.3 mph N/A   Scattered Clouds
12:53 PM 62.6 °F - 19.4 °F 19% 29.74 in 10.0 mi WSW 15.0 mph 27.6 mph N/A   Clear
1:12 PM 62.6 °F - 19.4 °F 19% 29.74 in 10.0 mi West 16.1 mph 33.4 mph N/A   Clear
1:33 PM 62.6 °F - 17.6 °F 18% 29.74 in 10.0 mi West 10.4 mph 31.1 mph N/A   Clear
1:53 PM 62.6 °F - 21.2 °F 20% 29.74 in 10.0 mi West 13.8 mph 27.6 mph N/A   Clear
2:12 PM 62.6 °F - 19.4 °F 19% 29.74 in 10.0 mi West 21.9 mph 31.1 mph N/A   Clear
2:33 PM 62.6 °F - 17.6 °F 18% 29.74 in 10.0 mi West 16.1 mph 36.8 mph N/A   Clear
2:53 PM 62.6 °F - 21.2 °F 20% 29.73 in 10.0 mi West 21.9 mph 34.5 mph N/A   Clear
3:12 PM 62.6 °F - 19.4 °F 19% 29.74 in 10.0 mi West 9.2 mph 33.4 mph N/A   Clear
3:33 PM 60.8 °F - 23.0 °F 23% 29.74 in 10.0 mi West 23.0 mph 34.5 mph N/A   Scattered Clouds
3:53 PM 60.8 °F - 19.4 °F 20% 29.74 in 10.0 mi WNW 21.9 mph 34.5 mph N/A   Clear
4:12 PM 57.2 °F - 23.0 °F 27% 29.76 in 10.0 mi West 21.9 mph 31.1 mph N/A   Clear
4:33 PM 57.2 °F - 23.0 °F 27% 29.76 in 10.0 mi WNW 19.6 mph 28.8 mph N/A   Clear
4:53 PM 57.2 °F - 24.8 °F 29% 29.77 in 10.0 mi West 11.5 mph 29.9 mph N/A   Clear
5:12 PM 57.2 °F - 24.8 °F 29% 29.77 in 10.0 mi WNW 12.7 mph 26.5 mph N/A   Clear
5:53 PM 55.4 °F - 23.0 °F 29% 29.80 in 10.0 mi WNW 13.8 mph 26.5 mph N/A   Scattered Clouds
6:13 PM 55.4 °F - 23.0 °F 29% 29.80 in 10.0 mi West 13.8 mph 24.2 mph N/A   Clear
6:32 PM 53.6 °F - 23.0 °F 30% 29.81 in 10.0 mi West 16.1 mph 32.2 mph N/A   Clear
6:53 PM 53.6 °F - 21.2 °F 28% 29.83 in 10.0 mi WNW 11.5 mph 24.2 mph N/A   Clear
7:13 PM 51.8 °F - 26.6 °F 38% 29.84 in 10.0 mi WNW 11.5 mph 27.6 mph N/A   Clear
7:32 PM 50.0 °F - 26.6 °F 40% - 10.0 mi WNW 13.8 mph 29.9 mph N/A   Scattered Clouds
7:53 PM 48.2 °F - 26.6 °F 43% 29.87 in 10.0 mi NW 17.3 mph 29.9 mph N/A   Scattered Clouds
8:13 PM 46.4 °F 39.8 °F 26.6 °F 46% 29.89 in 10.0 mi WNW 16.1 mph 27.6 mph N/A   Clear
8:32 PM 46.4 °F 40.1 °F 26.6 °F 46% 29.90 in 10.0 mi NW 15.0 mph 29.9 mph N/A   Clear
8:53 PM 44.6 °F 38.8 °F 28.4 °F 53% 29.92 in 10.0 mi NW 11.5 mph 21.9 mph N/A   Clear
9:13 PM 42.8 °F - 28.4 °F 57% 29.93 in 10.0 mi Calm Calm - N/A   Clear
9:32 PM 41.0 °F 36.4 °F 28.4 °F 61% 29.94 in 10.0 mi NW 6.9 mph - N/A   Clear
9:53 PM 39.2 °F 32.0 °F 28.4 °F 65% 29.95 in 10.0 mi NW 11.5 mph 20.7 mph N/A   Clear
10:13 PM 39.2 °F 31.6 °F 28.4 °F 65% 29.97 in 10.0 mi NW 12.7 mph 23.0 mph N/A   Clear
10:32 PM 37.4 °F 34.9 °F 28.4 °F 70% 29.98 in 10.0 mi NW 3.5 mph 18.4 mph N/A   Scattered Clouds
10:53 PM 35.6 °F 27.5 °F 26.6 °F 70% 29.97 in 10.0 mi NW 11.5 mph 24.2 mph N/A   Scattered Clouds
11:13 PM 35.6 °F 27.5 °F 24.8 °F 65% 29.97 in 10.0 mi NW 11.5 mph 26.5 mph N/A   Clear
11:32 PM 33.8 °F 27.0 °F 24.8 °F 70% 29.98 in 10.0 mi NW 8.1 mph 23.0 mph N/A   Clear
11:53 PM 33.8 °F 29.6 °F 24.8 °F 70% 30.00 in 10.0 mi NW 4.6 mph 20.7 mph N/A   Scattered Clouds